Location: Gad�tanya
(48.0500°N, 20.8500°E)
Time: 22:29:43
(UTC+00:00)

GEOS 3 Rocket - Pass Details

Date: 05 July 2020
Orbit: 771 x 848 km, 115.0° (Epoch: 05 August)

Event Time Altitude Azimuth Distance (km) Brightness Sun altitude
Rises 19:16:05 0° 44° (NE) 3,413 6.9 -5.7°
Reaches altitude 10° 19:18:32 10° 51° (NE) 2,477 6.1 -6.0°
Maximum altitude 19:23:41 44° 122° (ESE) 1,159 4.0 -6.6°
Drops below altitude 10° 19:28:48 10° 194° (SSW) 2,460 5.8 -7.2°
Sets 19:31:13 0° 201° (SSW) 3,386 6.6 -7.4°
